Location: Thompson
(55.7500°N, 97.8670°W)
Time: 20:30:15
(UTC-05:00)

Daily predictions for brighter satellites

Satellite Brightness Start Highest point End
(mag) Time Altitude Azimuth Time Altitude Azimuth Time Altitude Azimuth
SL-16 R/B 4.2 19:34:28 10° WNW 19:38:51 22° NNW 19:43:14 10° NNE
Cosmos 1953 3.2 19:35:49 10° SSE 19:39:15 28° E 19:42:42 10° NNE
Lacrosse 4 Rocket 3.7 19:36:02 10° WNW 19:39:19 19° NNW 19:42:36 10° NE
ERBS 2.4 19:36:55 10° WNW 19:40:26 87° SSW 19:43:57 10° ESE
In-Cosmos 22 4.3 19:34:52 10° NNW 19:40:42 79° ENE 19:46:28 10° SSE
Meteor 1-22 Rocket 4.1 19:35:51 10° S 19:41:05 64° E 19:46:21 10° NNE
Nadezhda 4 Rocket 4.2 19:37:08 10° N 19:43:19 53° ENE 19:49:24 10° SSE
Cosmos 1674 3.4 19:40:21 10° N 19:43:56 34° ENE 19:47:30 10° SE
Intercosmos 25 Rocket 3.9 19:40:32 10° SSW 19:46:12 81° WNW 19:49:55 10° N
Cosmos 1076 Rocket 3.6 19:42:28 10° NNW 19:46:50 84° WSW 19:51:11 10° S
NOSS 3-2 (C) 4.0 19:41:51 10° SSW 19:47:39 42° ESE 19:54:00 10° NE
Cosmos 2058 4.4 19:45:24 10° NNE 19:48:19 18° ENE 19:51:13 10° ESE
Cosmos 1470 4.2 19:48:39 10° SE 19:51:16 17° E 19:53:53 10° NE
Cosmos 1766 Rocket 3.6 19:47:59 10° NNW 19:52:24 88° W 19:56:46 10° S
Cosmos 1092 Rocket 4.3 19:47:16 10° N 19:53:18 48° ENE 19:59:15 10° SE
Cosmos 2151 3.9 19:53:15 10° N 19:56:55 28° ENE 20:00:36 10° SE
Cosmos 2333 Rocket 2.8 19:51:20 10° SW 19:57:04 63° NW 20:02:49 10° NNE
Spot 2 Rocket 3.5 19:53:02 10° SSE 19:58:03 72° ENE 20:03:06 10° NNW
Cosmos 1072 Rocket 4.4 19:52:51 10° S 19:58:55 72° E 20:05:04 10° NNE
Cosmos 2322 Rocket 4.3 19:57:23 10° WNW 20:01:27 20° NNW 20:05:32 10° NNE
Cosmos 1346 2.9 19:59:13 10° NNW 20:02:14 85° ENE 20:05:12 10° SSE
ATLAS 5 CENTAUR R/B 2.4 19:58:54 10° SSW 20:03:30 41° SE 20:08:31 10° ENE
Exosat Rocket 4.4 19:58:03 10° NNW 20:04:02 61° NE 20:12:26 10° SE
Cosmos-2242 3.3 20:00:14 10° SSE 20:04:25 45° E 20:08:38 10° NNE
H-2A R/B 4.1 20:03:19 10° ENE 20:05:30 13° NE 20:07:41 10° NNE
SJ-6B 3.4 20:03:29 10° S 20:07:30 64° WSW 20:11:38 10° NNW
HJ-1C 3.3 20:04:38 10° SSE 20:08:00 80° ENE 20:11:24 10° NNW
FREGAT/IRIS 3.0 20:06:12 10° S 20:09:16 68° WSW 20:12:23 10° NNW
Envisat 4.2 20:05:37 11° ESE 20:09:18 24° NE 20:13:18 10° N
Cosmos 2221 4.2 20:09:43 13° E 20:10:34 13° E 20:12:40 10° NE
Cosmos 1544 3.5 20:08:52 10° SSE 20:12:23 40° E 20:15:56 10° NNE
Cosmos 2237 Rocket 2.9 20:06:50 10° SW 20:12:27 58° NW 20:18:04 10° NNE
USA 215 4.4 20:09:20 10° E 20:13:55 20° SE 20:18:29 10° S
Cosmos 1626 4.3 20:14:21 10° NE 20:15:37 11° NE 20:16:19 11° ENE
Cosmos 1867 4.3 20:10:46 10° WSW 20:16:09 53° NNW 20:21:33 10° NE
Cosmos 1656 Rocket 4.4 20:11:46 10° NNW 20:16:44 35° NE 20:20:44 15° E
COSMOS 2428 4.4 20:13:14 10° W 20:18:18 31° NW 20:23:25 10° NNE
FengYun 1-2 T 4.2 20:12:51 10° SSE 20:18:21 81° ENE 20:23:52 10° NNW
Cosmos 1607 4.3 20:14:43 10° WSW 20:20:51 67° NW 20:27:01 10° NE
METEOR-M 4.4 20:17:37 10° S 20:22:59 73° WSW 20:28:22 10° NNW
SKYMED 2 4.1 20:19:19 10° N 20:23:38 63° WNW 20:27:56 10° SSW
Cosmos 1758 3.3 20:19:42 10° S 20:23:48 75° E 20:27:57 10° NNE
Cosmos 1500 Rocket 3.5 20:19:59 10° N 20:24:27 77° ENE 20:28:54 10° SSE
CZ-4B DEB 2.8 20:23:15 10° SSE 20:26:29 64° ENE 20:29:45 10° N
Cosmos 1437 Rocket 4.4 20:28:28 16° ENE 20:28:28 16° ENE 20:30:21 10° NE
H-2A R/B 4.1 20:30:27 10° ENE 20:32:05 11° NE 20:33:43 10° NNE
Cosmos 1842 Rocket 3.8 20:29:08 10° SSE 20:33:16 45° E 20:37:27 10° NNE
ATLAS 3B R/B 3.4 20:26:04 10° WSW 20:33:27 57° NNW 20:40:30 10° NE
Cosmos 1464 Rocket 4.2 20:27:47 10° SSW 20:34:01 77° WNW 20:40:13 10° N
Cosmos 2034 Rocket 4.0 20:27:55 10° S 20:34:14 87° E 20:40:39 10° NNE
SL-16 R/B 2.4 20:29:07 10° SW 20:34:50 75° NW 20:40:34 10° NNE
COSMOS 2455 4.1 20:32:20 10° W 20:37:58 39° NNW 20:43:37 10° NE
Cosmos 1328 3.8 20:34:48 10° N 20:38:46 61° ENE 20:42:32 11° SSE
Meteor 1-28 Rocket 3.3 20:35:17 10° NNE 20:39:02 76° WNW 20:42:45 10° SSW
ERS-1 Rocket 3.5 20:35:50 18° ESE 20:39:06 39° ENE 20:43:46 10° N
Meteor 1-29 3.1 20:36:06 10° NNE 20:39:33 51° E 20:42:58 10° S
Helios 1A 3.6 20:36:33 10° S 20:40:43 58° WSW 20:44:56 10° NNW
FENGYUN 3A 3.7 20:36:12 10° SSE 20:41:36 90° SSE 20:47:04 10° NNW
Aureole 2 Rocket 4.0 20:37:39 10° SW 20:41:48 46° NW 20:45:45 10° NNE
SL-14 R/B 3.7 20:38:27 10° N 20:42:22 45° ENE 20:44:46 21° SE
Cosmos 1110 Rocket 4.0 20:40:01 10° NNW 20:45:22 87° ENE 20:50:19 12° SSE
Cosmos 2219 Rocket 3.9 20:40:38 10° W 20:45:43 33° NW 20:50:50 10° NNE
CZ-2D R/B 3.2 20:42:27 10° SSE 20:46:22 87° ENE 20:50:17 10° NNW
CZ-4B DEB 4.5 20:45:08 14° SSE 20:48:11 75° ENE 20:51:48 10° NNW
Cosmos 2360 Rocket 4.4 20:45:31 10° WNW 20:49:38 20° NNW 20:53:46 10° NNE
CZ-4C R/B 2.9 20:44:04 10° WSW 20:49:46 60° NNW 20:56:22 10° NE
Cosmos 1980 Rocket 4.2 20:47:46 10° NNW 20:51:41 18° N 20:55:35 10° NE
ASTEX 1 3.3 20:48:18 10° N 20:53:15 71° E 20:58:08 10° S
H-2A R/B 2.9 20:52:46 10° S 20:56:40 77° WSW 21:00:32 10° NNW
Cosmos 1627 Rocket 4.4 20:50:30 10° N 20:56:44 79° ENE 21:03:00 10° SSE
Cosmos 1939 Rocket 3.4 20:56:09 31° ESE 20:57:19 39° ENE 21:01:02 10° N
NOSS 3-2 (A) 3.6 20:51:25 10° SW 20:57:46 87° NW 21:04:51 10° NE
Cosmos 1943 Rocket 2.1 20:52:59 10° NW 20:58:41 89° ENE 21:02:44 20° SSE
USA 186 1.0 20:58:50 61° S 20:59:10 81° W 21:01:41 10° NNW
Cosmos 1805 4.3 20:57:39 10° SSW 21:01:29 49° WNW 21:05:21 10° N
Helios 1B rocket 2.4 20:58:00 10° NNE 21:02:09 85° WNW 21:06:16 10° SSW
ALOS 2.9 21:01:39 10° S 21:06:14 57° W 21:10:53 10° NNW
Cosmos 2369 Rocket 3.2 21:00:55 10° NW 21:06:18 46° WSW 21:11:40 10° S
USA 238 DEB 4.2 20:59:49 10° WSW 21:06:47 60° NNW 21:13:47 10° NE
USA 238 4.2 20:59:54 10° WSW 21:06:53 60° NNW 21:13:53 10° NE
Aureole 3 4.4 21:02:28 10° N 21:08:59 56° ENE 21:11:43 28° SE
Sich 1 3.3 21:05:08 10° N 21:09:25 47° ENE 21:10:35 37° ESE
Resurs 01 Rocket 3.5 21:06:40 10° SSW 21:10:39 31° W 21:14:40 10° NNW
Cosmos 2251 Rocket 4.0 21:06:25 10° S 21:11:10 36° ESE 21:15:56 10° NE
ISS -0.9 21:09:51 10° SSW 21:10:31 13° S 21:10:31 13° S
SPOT 5 3.3 21:12:03 32° E 21:12:40 34° ENE 21:16:38 10° N
Cosmos 1943 3.2 21:09:45 10° S 21:15:12 54° ESE 21:20:41 10° NE
Cosmos 1953 3.9 21:11:55 10° SW 21:15:38 37° WNW 21:19:23 10° N
Cosmos 1331 Rocket 4.3 21:11:12 10° NNW 21:16:29 66° WSW 21:20:32 17° S
ERBS 3.9 21:13:54 10° W 21:16:58 29° SW 21:17:57 24° S
Cosmos 1733 3.2 21:15:34 10° SSW 21:19:26 83° WNW 21:23:19 10° N
Lacrosse 4 Rocket 3.6 21:16:21 10° NW 21:19:37 19° NNE 21:21:47 14° NE
Cosmos 1603 3.8 21:16:51 10° SW 21:22:37 79° NW 21:28:26 10° NNE
CENTAUR R/B 2.7 21:17:05 10° SSW 21:23:08 51° SE 21:29:59 10° NE
YAOGAN 6 3.8 21:25:06 29° NE 21:25:06 29° NE 21:27:41 10° N
SL-16 R/B 4.3 21:21:19 10° NW 21:25:06 18° N 21:28:52 10° NE
Cosmos 2058 3.1 21:21:39 10° NNW 21:25:46 71° W 21:28:02 25° S
GP-B 3.2 21:21:23 10° N 21:25:51 77° W 21:30:17 10° S
Cosmos 1470 3.3 21:23:09 10° SSW 21:27:00 60° WNW 21:30:52 10° N
Cosmos 1703 3.2 21:23:44 10° N 21:27:39 64° ENE 21:27:56 61° ESE
Cosmos 1302 Rocket 4.0 21:25:01 10° NNW 21:30:15 79° WSW 21:32:41 32° SSE
Cosmos 2151 4.1 21:30:24 10° NNW 21:34:24 43° W 21:38:15 11° SSW
Cosmos 1805 Rocket 3.7 21:31:53 10° NNW 21:36:20 73° W 21:38:18 32° S
CZ-4 DEB 3.2 21:37:55 57° NNW 21:37:55 57° NNW 21:40:29 10° NNW
NOSS 3-2 (C) 3.8 21:31:54 10° WSW 21:38:17 73° NNW 21:45:25 10° NE
Cosmos 2279 Rocket 3.9 21:32:29 12° S 21:38:17 67° E 21:44:29 10° NNE
H-2A R/B 2.2 21:40:19 56° E 21:40:39 58° ENE 21:45:08 10° N
Cosmos 1992 Rocket 4.2 21:35:46 10° NNW 21:40:56 54° NE 21:41:52 48° E
Cosmos 2333 Rocket 4.3 21:37:46 10° W 21:42:28 25° NNW 21:47:10 10° NNE
Cosmos 1048 Rocket 4.3 21:38:08 10° SW 21:43:23 66° WNW 21:48:35 10° NNE
Cosmos 2221 2.4 21:46:32 55° S 21:47:28 86° ESE 21:51:49 10° NNE
Cosmos 2322 Rocket 4.2 21:43:45 10° NNW 21:47:42 19° NNE 21:50:58 12° NE
Cosmos 2266 Rocket 4.0 21:41:27 10° N 21:47:49 67° ENE 21:49:47 44° SE
Envisat 3.0 21:45:50 38° S 21:47:51 80° WSW 21:52:58 10° NNW
ATLAS 5 CENTAUR R/B 2.4 21:43:00 10° WSW 21:48:02 64° NNW 21:52:34 15° NE
Cosmos 1633 Rocket 2.9 21:43:42 10° NNW 21:48:07 88° WSW 21:48:43 66° S
Cosmos 1655 Rocket 4.4 21:43:22 10° NNW 21:49:30 61° W 21:55:08 12° S
Cosmos 2278 4.2 21:44:10 10° NNW 21:49:40 45° NE 21:50:46 40° ENE
Cosmos 1626 2.6 21:47:59 10° N 21:51:01 53° N 21:51:01 53° N
Cosmos 158 Rocket 3.9 21:49:43 10° SSW 21:54:36 79° WNW 21:59:34 10° NNE
Meteor 2-1 Rocket 4.2 21:50:45 15° S 21:55:41 82° ESE 22:01:39 10° NNE
MetOp-A 4.0 21:55:50 58° SE 21:56:53 76° ENE 22:02:16 10° NNW
Meteor 1-16 Rocket 4.1 21:52:23 10° SSW 21:57:41 77° WNW 22:03:06 10° NNE
Cosmos 2237 Rocket 4.4 21:53:13 10° WNW 21:57:42 23° NNW 22:02:11 10° NNE
Cosmos 1697 Rocket 3.8 21:53:04 10° NNW 21:58:01 30° NNE 21:59:10 28° NE
USA 215 3.3 21:56:44 45° ESE 21:58:03 52° SE 22:04:25 10° SW
Cosmos 1656 Rocket 3.7 21:55:21 10° NW 22:00:45 69° WSW 22:02:07 49° S
Terra 3.1 22:02:42 27° NE 22:02:42 27° NE 22:06:03 10° N
SeaSat 1 4.1 21:57:37 10° NE 21:59:11 20° NE 21:59:11 20° NE
Cosmos 1634 Rocket 4.5 21:57:22 10° SSW 22:03:30 59° WNW 22:09:38 10° N
Cosmos 1437 Rocket 3.1 22:03:53 66° NW 22:03:53 66° NW 22:07:38 10° N
H-2A R/B 2.7 22:10:39 40° NE 22:10:39 40° NE 22:15:05 10° N
ARGOS 3.1 22:10:03 64° E 22:10:21 66° ENE 22:15:45 10° NNW
USA 81 4.0 22:12:49 66° ENE 22:12:49 66° ENE 22:17:45 10° NNE
Cosmos 2369 3.9 22:11:45 10° NNW 22:17:27 58° NE 22:17:48 57° ENE
ERS-1 Rocket 3.9 22:15:51 29° SSW 22:17:53 43° W 22:22:42 10° NNW
SL-16 R/B 4.2 22:15:05 10° W 22:19:53 27° NNW 22:24:42 10° NNE
Cosmos 1340 Rocket 4.1 22:18:50 10° NNW 22:21:16 36° N 22:21:16 36° N
ATLAS 3B R/B 3.6 22:18:23 10° WNW 22:25:26 45° N 22:29:04 26° ENE
Cosmos 1933 Rocket 4.0 22:24:22 10° NNW 22:28:08 60° NW 22:28:08 60° NW
SPOT 1/Viking Rocket 3.5 22:33:53 80° NW 22:33:53 80° NW 22:38:48 10° NNW
Cosmos 2360 Rocket 4.4 22:31:56 10° NNW 22:35:50 18° N 22:38:42 13° NE
Cosmos 1980 Rocket 3.2 22:32:17 10° NNW 22:37:28 34° NE 22:37:42 34° NE
Cosmos 1470 Rocket 4.4 22:33:32 10° NNW 22:36:59 48° NW 22:36:59 48° NW
CZ-4C R/B 3.5 22:33:32 10° WNW 22:39:23 43° N 22:42:48 26° NE
Cosmos 1745 Rocket 4.4 22:33:27 10° N 22:39:05 48° NE 22:39:05 48° NE
Cosmos 1943 Rocket 4.2 22:37:35 10° NW 22:41:46 22° WSW 22:44:16 16° SW
NOAA 11 4.2 22:42:51 75° W 22:42:51 75° W 22:48:15 10° NNW
NOSS 3-2 (A) 4.5 22:43:01 10° W 22:49:22 49° NNW 22:54:57 17° ENE
Nadezhda 2 Rocket 4.4 22:44:10 10° NNW 22:50:22 75° W 22:50:45 72° SW
SPOT 5 3.9 22:51:18 37° WNW 22:51:18 37° WNW 22:54:53 10° NNW
Cosmos 2251 Rocket 4.3 22:48:14 10° SW 22:53:20 51° NW 22:58:30 10° NNE
Cosmos 1943 4.3 22:54:07 10° WSW 22:59:28 43° NW 23:04:50 10° NNE
Lacrosse 4 Rocket 3.2 22:55:16 10° NW 22:58:07 30° N 22:58:07 30° N
SL-16 R/B 3.6 23:06:12 10° NNW 23:11:07 29° NNE 23:11:13 29° NNE
CENTAUR R/B 3.0 23:07:13 10° WSW 23:13:44 67° NNW 23:21:11 10° NE
Meteor 2-3 Rocket 4.1 23:09:21 10° NNW 23:14:06 61° NNW 23:14:06 61° NNW
H-2A R/B 4.1 23:17:27 24° W 23:17:27 24° W 23:20:43 10° NW
Cosmos 2285 Rocket 4.4 23:14:17 10° NNW 23:20:16 54° W 23:20:16 54° W
Cosmos 2322 Rocket 3.4 23:28:13 10° NNW 23:32:46 34° NNE 23:32:46 34° NNE
ATLAS 5 CENTAUR R/B 3.3 23:28:38 10° WNW 23:33:35 39° N 23:34:07 38° N
Terra 3.5 23:41:35 31° NW 23:41:35 31° NW 23:44:14 10° NNW
SeaSat 1 3.8 23:35:20 10° NNE 23:38:55 35° NNW 23:38:55 35° NNW
USA 215 4.1 23:44:08 40° WSW 23:44:08 40° WSW 23:48:03 10° WSW
Cosmos 1697 Rocket 3.6 23:37:01 10° NW 23:40:53 45° NW 23:40:53 45° NW
H-2A R/B 3.5 23:51:18 32° NW 23:51:18 32° NW 23:54:37 10° NNW
